This is the latest recevied weather packets stored in our database for station/object AB8Y-13. If no packets are shown the sender has not sent any weather packets the latest 10 day(s).
| Time | Temp. | Humidity | Pressure | Rain* | Wind** | Luminosity | Snow |
|---|---|---|---|---|---|---|---|
| 1777745806 | 10° C | 49% | 1017.6 hPa | 0 mm | - | 1175 W/m² | - |
| 1777745504 | 8.89° C | 39% | 1017.5 hPa | 0 mm | - | 1225 W/m² | - |
| 1777745201 | 8.89° C | 42% | 1017.5 hPa | 0 mm | - | 346 W/m² | - |
| 1777744898 | 8.89° C | 39% | 1017.7 hPa | 0 mm | - | 317 W/m² | - |
| 1777744597 | 8.33° C | 43% | 1017.7 hPa | 0 mm | - | 1133 W/m² | - |
| 1777744293 | 8.89° C | 37% | 1017.3 hPa | 0 mm | - | 242 W/m² | - |
| 1777743991 | 8.89° C | 37% | 1017.7 hPa | 0 mm | - | 991 W/m² | - |
| 1777743687 | 9.44° C | 42% | 1017.7 hPa | 0 mm | - | 300 W/m² | - |
| 1777743384 | 9.44° C | 40% | 1017.8 hPa | 0 mm | - | 356 W/m² | - |
| 1777743082 | 8.33° C | 41% | 1017.7 hPa | 0 mm | - | 1028 W/m² | - |
| 1777742779 | 8.89° C | 42% | 1017.8 hPa | 0 mm | - | 323 W/m² | - |
| 1777742476 | 8.33° C | 41% | 1018 hPa | 0 mm | - | 470 W/m² | - |
| 1777742171 | 9.44° C | 39% | 1017.8 hPa | 0 mm | - | 339 W/m² | - |
| 1777741868 | 10° C | 39% | 1018 hPa | 0 mm | - | 1182 W/m² | - |
| 1777741565 | 10° C | 37% | 1018 hPa | 0 mm | - | 1169 W/m² | - |
| 1777741262 | 9.44° C | 39% | 1017.9 hPa | 0 mm | - | 1238 W/m² | - |
| 1777740959 | 10° C | 37% | 1018 hPa | 0 mm | - | 1107 W/m² | - |
| 1777740656 | 8.33° C | 42% | 1018.2 hPa | 0 mm | - | 1034 W/m² | - |
| 1777740352 | 8.33° C | 43% | 1018.3 hPa | 0 mm | - | 234 W/m² | - |
| 1777740049 | 9.44° C | 40% | 1018.2 hPa | 0 mm | - | 329 W/m² | - |
| 1777739745 | 8.33° C | 40% | 1018.3 hPa | 0 mm | - | 1073 W/m² | - |
| 1777739442 | 8.33° C | 45% | 1018.4 hPa | 0 mm | - | 240 W/m² | - |
| 1777739139 | 8.89° C | 44% | 1018.3 hPa | 0 mm | - | 257 W/m² | - |
| 1777738836 | 7.78° C | 49% | 1018.3 hPa | 0 mm | - | 1208 W/m² | - |
| 1777738532 | 7.78° C | 45% | 1018.4 hPa | 0 mm | - | 1179 W/m² | - |
* Rain latest hour (hover to see other rain measurements)
** Current wind speed in m/s (hover to see current wind gust speed)